contact:dominique.lefevre@mio.osupytheas.fr, maurice.libes@osupytheas.fr
Project:EMSO Ligure-ouest http://www.emso-fr.org/EMSO-France
Sensor Aquadopp, line 13 Serial AQD14315 
DOI : "https://doi.org/10.17882/74513; https://doi.org/10.17882/83244" 
Title:EMSO Ligure Ouest : Data ligne ALBATROSS capteur AQUADOPP - deploiement 2021
Id,Date,Profondeur,Latitude,Longitude,X_East,Y_North,Z_Up,Amplitude_X,Amplitude_Y,Amplitude_Z,Batterie,SoundSpeed,Heading,Pitch,Roll,Pressure,Temperature,Speed,Direction
, , m, degrees North, degrees East, m.s-1, m.s-1,m.s-1, 1, 1, 1, Volt, m.s-1, degree, degree, degree, dbar, degree_C, m.s-1, degree
07,2023-03-16T23:30:00,1500.0,42.79,6.0312,-0.105,0.003,-0.015,53.0,55.0,53.0,12.3,1504.1,231.6,-1.3,1.9,1476.065,13.12,0.105,271.6
07,2023-03-17T00:00:00,1500.0,42.79,6.0312,-0.098,0.005,-0.007,53.0,54.0,53.0,12.3,1504.1,232.7,-1.6,1.7,1476.017,13.12,0.098,272.9
07,2023-03-17T00:30:00,1500.0,42.79,6.0312,-0.106,-0.027,-0.017,55.0,54.0,53.0,12.3,1504.1,212.3,-0.3,2.2,1475.957,13.12,0.109,255.7
07,2023-03-17T01:00:00,1500.0,42.79,6.0312,-0.093,-0.025,0.015,55.0,55.0,54.0,12.3,1504.0,219.0,-0.9,1.7,1475.988,13.11,0.096,255.0
07,2023-03-17T01:30:00,1500.0,42.79,6.0312,-0.101,-0.014,0.017,52.0,53.0,53.0,12.3,1504.0,221.5,-1.9,1.6,1475.962,13.11,0.101,262.1
07,2023-03-17T02:00:00,1500.0,42.79,6.0312,-0.09,0.0,0.012,53.0,54.0,53.0,12.3,1504.0,227.6,-0.3,2.0,1475.987,13.11,0.089,270.0
07,2023-03-17T02:30:00,1500.0,42.79,6.0312,-0.096,-0.019,-0.015,54.0,52.0,53.0,12.3,1504.0,221.7,-1.4,1.9,1476.035,13.11,0.097,258.8
07,2023-03-17T03:00:00,1500.0,42.79,6.0312,-0.094,-0.02,0.006,53.0,54.0,54.0,12.3,1504.0,224.3,-2.4,1.7,1476.101,13.11,0.096,258.0
07,2023-03-17T03:30:00,1500.0,42.79,6.0312,-0.114,-0.01,-0.004,53.0,54.0,53.0,12.3,1504.0,234.9,-1.0,1.8,1476.227,13.11,0.114,265.0
07,2023-03-17T04:00:00,1500.0,42.79,6.0312,-0.1,-0.012,-0.007,54.0,55.0,53.0,12.3,1504.0,228.7,-1.7,1.1,1476.2,13.11,0.1,263.2
07,2023-03-17T04:30:00,1500.0,42.79,6.0312,-0.105,-0.049,0.01,53.0,54.0,54.0,12.3,1504.0,215.8,-2.1,1.4,1476.211,13.11,0.115,245.0
07,2023-03-17T05:00:00,1500.0,42.79,6.0312,-0.116,0.011,0.005,53.0,54.0,53.0,12.3,1504.0,237.0,-1.9,1.1,1476.258,13.11,0.116,275.4
07,2023-03-17T05:30:00,1500.0,42.79,6.0312,-0.1,-0.037,0.004,53.0,53.0,52.0,12.3,1504.1,211.1,-0.5,2.1,1476.29,13.12,0.106,249.7
07,2023-03-17T06:00:00,1500.0,42.79,6.0312,-0.111,0.001,-0.001,53.0,53.0,53.0,12.3,1504.0,235.3,-1.8,2.0,1476.361,13.11,0.111,270.5
07,2023-03-17T06:30:00,1500.0,42.79,6.0312,-0.114,-0.009,0.0,52.0,54.0,52.0,12.3,1504.1,223.8,-1.9,1.5,1476.255,13.12,0.114,265.5
07,2023-03-17T07:00:00,1500.0,42.79,6.0312,-0.109,0.0,0.003,54.0,53.0,54.0,12.3,1504.1,237.9,-1.6,1.4,1476.183,13.12,0.109,270.0
07,2023-03-17T07:30:00,1500.0,42.79,6.0312,-0.109,-0.016,-0.002,53.0,53.0,52.0,12.3,1504.1,224.3,-1.5,1.7,1476.23,13.12,0.11,261.7
07,2023-03-17T08:00:00,1500.0,42.79,6.0312,-0.113,-0.018,-0.003,52.0,54.0,52.0,12.3,1504.1,219.2,-1.0,1.7,1476.162,13.12,0.114,261.0
07,2023-03-17T08:30:00,1500.0,42.79,6.0312,-0.105,-0.023,0.007,53.0,53.0,53.0,12.3,1504.1,218.2,-1.5,1.8,1476.16,13.12,0.107,257.6
07,2023-03-17T09:00:00,1500.0,42.79,6.0312,-0.091,-0.016,0.005,54.0,53.0,52.0,12.3,1504.1,224.2,-1.3,2.1,1476.055,13.12,0.092,260.0
07,2023-03-17T09:30:00,1500.0,42.79,6.0312,-0.085,-0.042,0.016,54.0,54.0,54.0,12.3,1504.1,212.1,-1.4,1.5,1476.004,13.12,0.094,243.7
07,2023-03-17T10:00:00,1500.0,42.79,6.0312,-0.104,-0.002,-0.003,53.0,55.0,53.0,12.3,1504.1,223.4,-1.7,1.5,1475.939,13.12,0.104,268.9
07,2023-03-17T10:30:00,1500.0,42.79,6.0312,-0.096,-0.017,0.0,53.0,55.0,52.0,12.3,1504.1,225.1,-0.9,1.7,1475.851,13.12,0.097,260.0
07,2023-03-17T11:00:00,1500.0,42.79,6.0312,-0.095,-0.028,0.0,54.0,54.0,52.0,12.3,1504.1,209.4,-1.0,1.9,1475.826,13.12,0.099,253.6
07,2023-03-17T11:30:00,1500.0,42.79,6.0312,-0.097,-0.027,0.008,53.0,53.0,52.0,12.3,1504.1,208.8,-1.4,1.4,1475.902,13.12,0.1,254.4
07,2023-03-17T12:00:00,1500.0,42.79,6.0312,-0.088,-0.012,-0.008,52.0,53.0,52.0,12.3,1504.1,216.6,-1.0,1.7,1475.967,13.12,0.088,262.2
07,2023-03-17T12:30:00,1500.0,42.79,6.0312,-0.088,-0.035,0.006,54.0,53.0,51.0,12.3,1504.1,205.2,-0.7,2.0,1475.99,13.12,0.094,248.3
07,2023-03-17T13:00:00,1500.0,42.79,6.0312,-0.096,-0.033,0.009,54.0,54.0,52.0,12.3,1504.1,215.6,-1.6,1.9,1476.047,13.12,0.101,251.0
07,2023-03-17T13:30:00,1500.0,42.79,6.0312,-0.101,-0.014,0.002,53.0,54.0,52.0,12.3,1504.1,227.8,-1.5,1.9,1476.027,13.12,0.101,262.1
07,2023-03-17T14:00:00,1500.0,42.79,6.0312,-0.086,-0.034,0.0,54.0,53.0,53.0,12.3,1504.1,209.5,-1.5,1.6,1475.977,13.12,0.092,248.4
07,2023-03-17T14:30:00,1500.0,42.79,6.0312,-0.092,-0.032,-0.028,52.0,53.0,52.0,12.3,1504.1,217.5,-0.4,1.8,1476.048,13.12,0.097,250.8
07,2023-03-17T15:00:00,1500.0,42.79,6.0312,-0.099,-0.025,-0.008,53.0,53.0,53.0,12.3,1504.1,218.3,-1.7,2.1,1476.116,13.12,0.102,255.8
07,2023-03-17T15:30:00,1500.0,42.79,6.0312,-0.106,-0.036,0.0,53.0,54.0,52.0,12.3,1504.1,214.3,-1.5,2.3,1476.175,13.12,0.111,251.2
07,2023-03-17T16:00:00,1500.0,42.79,6.0312,-0.102,-0.02,0.012,53.0,53.0,52.0,12.3,1504.1,227.4,-1.9,1.9,1476.215,13.12,0.103,258.9
07,2023-03-17T16:30:00,1500.0,42.79,6.0312,-0.091,-0.057,0.005,53.0,53.0,53.0,12.3,1504.1,208.0,-1.7,1.8,1476.218,13.12,0.107,237.9
07,2023-03-17T17:00:00,1500.0,42.79,6.0312,-0.106,-0.018,0.014,52.0,53.0,52.0,12.3,1504.1,230.5,-1.9,1.6,1476.139,13.12,0.107,260.4
07,2023-03-17T17:30:00,1500.0,42.79,6.0312,-0.12,-0.012,0.002,53.0,54.0,52.0,12.3,1504.1,236.4,-1.8,1.7,1476.113,13.12,0.12,264.3
07,2023-03-17T18:00:00,1500.0,42.79,6.0312,-0.107,-0.022,0.013,52.0,56.0,54.0,12.3,1504.1,227.1,-1.3,1.7,1476.151,13.12,0.109,258.4
07,2023-03-17T18:30:00,1500.0,42.79,6.0312,-0.105,-0.023,0.01,53.0,54.0,53.0,12.3,1504.1,221.9,-1.2,1.8,1476.24,13.12,0.107,257.6
07,2023-03-17T19:00:00,1500.0,42.79,6.0312,-0.101,-0.033,0.022,54.0,54.0,53.0,12.3,1504.1,216.7,-0.9,2.0,1476.236,13.12,0.106,251.9
07,2023-03-17T19:30:00,1500.0,42.79,6.0312,-0.111,-0.012,-0.007,54.0,53.0,52.0,12.3,1504.0,231.7,-1.5,2.1,1476.208,13.11,0.111,263.8
07,2023-03-17T20:00:00,1500.0,42.79,6.0312,-0.114,-0.004,-0.008,54.0,53.0,51.0,12.3,1504.0,232.8,-2.4,1.5,1476.242,13.11,0.114,268.0
07,2023-03-17T20:30:00,1500.0,42.79,6.0312,-0.113,-0.031,-0.013,53.0,54.0,52.0,12.3,1504.0,216.3,-1.3,1.8,1476.19,13.11,0.117,254.7
07,2023-03-17T21:00:00,1500.0,42.79,6.0312,-0.105,-0.012,0.002,53.0,54.0,52.0,12.3,1504.1,232.4,-1.5,1.9,1476.157,13.12,0.105,263.5
07,2023-03-17T21:30:00,1500.0,42.79,6.0312,-0.103,-0.022,-0.004,52.0,54.0,54.0,12.3,1504.1,220.1,-1.2,1.7,1476.184,13.12,0.105,257.9
07,2023-03-17T22:00:00,1500.0,42.79,6.0312,-0.107,-0.021,0.001,51.0,53.0,52.0,12.3,1504.1,217.4,-1.3,1.9,1476.025,13.12,0.109,258.9
07,2023-03-17T22:30:00,1500.0,42.79,6.0312,-0.099,-0.042,-0.011,53.0,53.0,52.0,12.3,1504.1,210.0,-0.2,2.2,1475.951,13.12,0.107,247.0
07,2023-03-17T23:00:00,1500.0,42.79,6.0312,-0.099,-0.031,-0.009,52.0,54.0,51.0,12.3,1504.1,219.4,-1.0,2.0,1475.977,13.12,0.103,252.6
